Regional Weather Roundup
Issued by NWS

Home | Current Version | Previous Version | Graphics & Text | Print | Product List | Glossary On
Versions: 1 2 3 4 5 6 7 8 9 10 11 12 13 14 15 16 17 18 19 20 21 22 23 24 25 26 27 28 29 30 31 32 33 34 35 36 37 38 39 40 41 42 43 44 45 46 47 48 49 50
000
ASUS45 KTFX 250519
RWRMT
MONTANA HOURLY WEATHER ROUNDUP
NATIONAL WEATHER SERVICE GREAT FALLS MT
1119 PM MDT THU JUL 24 2014

NOTE: "FAIR" INDICATES FEW OR NO CLOUDS BELOW 12000 FEET WITH NO
SIGNIFICANT WEATHER AND/OR OBSTRUCTIONS TO VISIBILITY.

* THESE STATIONS ARE NOT UNDER NWS QUALITY CONTROL. THEY DO NOT
   REPORT WEATHER SUCH AS PRECIPITATION OR FOG.

MTZ001>007-043-250600-
WEST OF THE DIVIDE
CITY           SKY/WX    TMP DP  RH WIND       PRES   REMARKS
KALISPELL      PTCLDY    55  39  55 SW7       30.08S
MISSOULA       CLEAR     55  37  51 NW5       30.14R
BUTTE          CLEAR     55  32  42 NW3       30.15R
MULLAN PASS    CLOUDY    45  37  74 SW6       30.19S
* LINCOLN      N/A       54  35  49 S6G16      N/A
* LOOKOUT PASS N/A       51  42  71 E1         N/A
* POLSON       N/A       51  38  61 S2         N/A
* RONAN APT    PTCLDY    55  45  69 N/A        N/A
* SEELEY LAKE  N/A       48  38  68 E1         N/A
* THOMP F APT  CLEAR     55  15  20 NE5G11     N/A
$$

MTZ008-052>055-250600-
SOUTHWEST MONTANA
CITY           SKY/WX    TMP DP  RH WIND       PRES   REMARKS
BOZEMAN        CLEAR     52  36  55 NW10      30.05R
DILLON         CLEAR     55  30  39 SE10      30.09R
W YELLOWSTONE  CLEAR     57  25  29 SW12G18   30.17S
* THREE FORKS  CLEAR     64  39  40 N/A        N/A
* BOULDER HILL N/A       51  28  41 VRB3       N/A
* MONIDA PASS  N/A       56  14  19 SE9G14     N/A
* RAYNOLDS PAS N/A       56  34  44 SE17G22    N/A
* WHITEHALL    N/A       63  28  27 SW3G14     N/A
* WISE RIVER   N/A       55  30  39 NW9G16     N/A
$$

MTZ009>010-012-014-046-048-049-054-250600-
EAST SLOPES AND CENTRAL MONTANA
CITY           SKY/WX    TMP DP  RH WIND       PRES   REMARKS
CUT BANK       PTCLDY    55  36  49 W26G33    29.93R
GREAT FALLS    CLEAR     57  34  42 W12       29.98R
HELENA         CLEAR     63  36  37 SW10      30.06R
MALMSTROM AFB  CLEAR     61  32  34 W12G18    30.00R
* CONRAD       PTCLDY    54  39  57 SW7        N/A
* DEARBORN     N/A       64  34  33 S12G22     N/A
* EAST GLACIER N/A       52  35  52 W14G20     N/A
* MONARCH      N/A       56  24  29 W11G26     N/A
* PENDROY      N/A       51  34  52 NW6        N/A
* SAINT MARY   N/A       51  38  61 S13G34     N/A
* SWEET GRASS  N/A       55  35  47 W16G24     N/A
* WHITE SULPH  N/A       60  28  30 NW11G23    N/A
$$

MTZ011-013-016-021-035-040-045-047-050-051-250600-
NORTH CENTRAL MONTANA
CITY           SKY/WX    TMP DP  RH WIND       PRES   REMARKS
HAVRE          CLEAR     63  36  37 W17G33    29.86S
LEWISTOWN      CLEAR     61  32  34 NW9       29.98R
* FORT BENTON  CLEAR     63  34  34 SW13      29.93S
* CHESTER      N/A       59  35  41 W9G18      N/A
* DENTON       N/A       59  30  33 NW6        N/A
* GEYSER       N/A       57  30  36 W19        N/A
* JUDITH GAP   N/A       59  29  32 NW13G22    N/A
* LOMA         N/A       59  38  46 N4         N/A
$$

MTZ017>020-022>027-061-062-250600-
NORTHEAST MONTANA
CITY           SKY/WX    TMP DP  RH WIND       PRES   REMARKS
GLASGOW        CLEAR     63  39  41 N3        29.86R
GLENDIVE       PTCLDY    63  48  58 N9        29.89R
JORDAN         PTCLDY    59  41  51 NE3       29.90R
SIDNEY         PTCLDY    63  54  73 NW5       29.85R
WOLF POINT     CLEAR     57  54  90 CALM      29.86R
* BEAVER HILL  N/A       61  54  78 NW15       N/A
* CIRCLE       N/A       61  52  72 N/A        N/A
* LINDSAY DVD  N/A       60  49  67 N13G19     N/A
* NAVAJO       N/A       52  51  96 SW3        N/A
$$

MTZ028>042-056>058-250600-
SOUTHCENTRAL AND SOUTHEAST MONTANA
CITY           SKY/WX    TMP DP  RH WIND       PRES   REMARKS
BAKER          CLEAR     64  48  56 NW13      29.88R
BILLINGS       CLEAR     73  36  26 N12       29.94R
LIVINGSTON     CLEAR     64  28  26 NW10      30.02R
MILES CITY     CLEAR     64  48  56 NE8       29.90R
* LAUREL APT   CLEAR     68  37  32 NW5        N/A
* ROUNDUP APT  CLEAR     66  25  21 N/A        N/A
* ALZADA       N/A       64  57  78 NW13       N/A
* HYSHAM       N/A       69  30  23 N2G9       N/A
* LAME DEER    N/A       66  41  40 VRB12G21    N/A
* REED POINT   N/A       71  32  24 W8         N/A
* ROSCOE HILL  N/A       64  35  34 SE9        N/A
$$

REGIONAL REPORTS...DAKOTAS
CITY           SKY/WX    TMP DP  RH WIND       PRES   REMARKS
WILLISTON      MOCLDY    64  61  90 NW10      29.80R
DICKINSON      MOCLDY    70  66  87 NW15      29.76R
CROSBY         MOCLDY    61  61 100 NW16G25   29.79R
TIOGA          TSTM      66  66 100 CALM      29.81R
WATFORD CITY   CLEAR     63  63 100 N3        29.78R
BISMARCK       LGT RAIN  72  64  76 SE5       29.73R
GRAND FORKS    CLOUDY    70  63  79 SE9       29.79F
FARGO          MOCLDY    70  61  73 SE10      29.78F
BUFFALO SD     PTCLDY    66  61  84 NW30G38   29.74R
RAPID CITY     CLEAR     73  61  66 NW20      29.74R
$$

REGIONAL REPORTS...WYOMING/IDAHO/WASHINGTON
CITY           SKY/WX    TMP DP  RH WIND       PRES   REMARKS
GILLETTE       CLEAR     70  52  53 N25G37    29.96R
SHERIDAN       CLEAR     70  48  46 W10       29.97R
YELLOWSTONE LA CLEAR     48  19  32 CALM      30.28R
SALMON         CLEAR     64  36  35 N9        30.06R
MULLAN PASS    CLOUDY    45  37  74 SW6       30.19S
SAND POINT     CLOUDY    55  54  96 CALM      30.07S
SPOKANE        MOCLDY    64  45  50 SW9       30.08R
$$

REGIONAL REPORTS...ALBERTA
CITY           SKY/WX    TMP DP  RH WIND       PRES   REMARKS
CALGARY        FAIR      55  34  45 W21G31    29.73S
LETHBRIDGE     PTCLDY    57  39  51 SW23G31   29.83S
MEDICINE HAT   CLEAR     55  43  64 SW16G22   29.76F
EDMONTON       MOCLDY    57  50  78 W7        29.63R
WATERTON GATE  N/A       54  37  53 SW14G28    N/A
CARDSTON       N/A       55  39  55 W12G17     N/A
$$

REGIONAL REPORTS...SASKATCHEWAN
CITY           SKY/WX    TMP DP  RH WIND       PRES   REMARKS
SWIFT CURRENT  CLEAR     54  43  67 SW14G21   29.74S
REGINA         MOCLDY    59  57  93 SW10      29.77S
VAL MARIE      N/A       54  48  80 S5         N/A
ASSINIBOIA     N/A       54  50  86 SW9        N/A
CORONACH       N/A       52  50  93 W3         N/A

$$



USA.gov is the U.S. government's official web portal to all federal, state and local government web resources and services.